Year,Month,Day,Hour,Minute,Value (Times are PST for windspeed in km/hr)
2006,02,05,00,00,14.70
2006,02,05,00,01,12.40
2006,02,05,00,02,10.90
2006,02,05,00,03,11.80
2006,02,05,00,04,13.30
2006,02,05,00,05,11.30
2006,02,05,00,06,18.70
2006,02,05,00,07,19.30
2006,02,05,00,08,12.70
2006,02,05,00,09,16.80
2006,02,05,00,10,17.70
2006,02,05,00,11,17.70
2006,02,05,00,12,14.70
2006,02,05,00,13,7.20
2006,02,05,00,14,11.50
2006,02,05,00,15,7.50
2006,02,05,00,16,7.80
2006,02,05,00,17,6.00
2006,02,05,00,18,13.80
2006,02,05,00,19,11.40
2006,02,05,00,20,14.10
2006,02,05,00,21,12.20
2006,02,05,00,22,11.60
2006,02,05,00,23,11.60
2006,02,05,00,24,15.20
2006,02,05,00,25,12.50
2006,02,05,00,26,8.60
2006,02,05,00,27,10.30
2006,02,05,00,28,13.60
2006,02,05,00,29,12.80
2006,02,05,00,30,10.10
2006,02,05,00,31,6.40
2006,02,05,00,32,9.70
2006,02,05,00,33,11.30
2006,02,05,00,34,11.30
2006,02,05,00,35,13.40
2006,02,05,00,36,12.50
2006,02,05,00,37,12.20
2006,02,05,00,38,8.30
2006,02,05,00,39,9.80
2006,02,05,00,40,6.90
2006,02,05,00,41,7.10
2006,02,05,00,42,10.30
2006,02,05,00,43,8.60
2006,02,05,00,44,8.40
2006,02,05,00,45,9.60
2006,02,05,00,46,9.60
2006,02,05,00,47,10.80
2006,02,05,00,48,11.70
2006,02,05,00,49,7.90
2006,02,05,00,50,5.80
2006,02,05,00,51,15.40
2006,02,05,00,52,6.70
2006,02,05,00,53,9.70
2006,02,05,00,54,6.00
2006,02,05,00,55,9.00
2006,02,05,00,56,7.70
2006,02,05,00,57,6.80
2006,02,05,00,58,13.00
2006,02,05,00,59,9.80
2006,02,05,01,00,7.10
2006,02,05,01,01,9.20
2006,02,05,01,02,6.70
2006,02,05,01,03,7.50
2006,02,05,01,04,9.70
2006,02,05,01,05,10.90
2006,02,05,01,06,8.50
2006,02,05,01,07,5.00
2006,02,05,01,08,4.80
2006,02,05,01,09,9.60
2006,02,05,01,10,9.60
2006,02,05,01,11,11.20
2006,02,05,01,12,13.70
2006,02,05,01,13,8.60
2006,02,05,01,14,10.80
2006,02,05,01,15,11.40
2006,02,05,01,16,10.90
2006,02,05,01,17,9.20
2006,02,05,01,18,9.90
2006,02,05,01,19,13.80
2006,02,05,01,20,11.30
2006,02,05,01,21,8.10
2006,02,05,01,22,11.50
2006,02,05,01,23,9.10
2006,02,05,01,24,14.80
2006,02,05,01,25,17.00
2006,02,05,01,26,16.90
2006,02,05,01,27,11.40
2006,02,05,01,28,8.80
2006,02,05,01,29,15.20
2006,02,05,01,30,9.10
2006,02,05,01,31,12.20
2006,02,05,01,32,12.10
2006,02,05,01,33,11.30
2006,02,05,01,34,13.00
2006,02,05,01,35,12.30
2006,02,05,01,36,9.30
2006,02,05,01,37,8.90
2006,02,05,01,38,11.50
2006,02,05,01,39,10.90
2006,02,05,01,40,9.90
2006,02,05,01,41,8.90
2006,02,05,01,42,13.60
2006,02,05,01,43,8.90
2006,02,05,01,44,10.90
2006,02,05,01,45,16.90
2006,02,05,01,46,10.20
2006,02,05,01,47,7.80
2006,02,05,01,48,9.60
2006,02,05,01,49,12.10
2006,02,05,01,50,9.80
2006,02,05,01,51,6.50
2006,02,05,01,52,9.40
2006,02,05,01,53,9.60
2006,02,05,01,54,8.70
2006,02,05,01,55,8.10
2006,02,05,01,56,7.90
2006,02,05,01,57,11.30
2006,02,05,01,58,9.60
2006,02,05,01,59,5.70
2006,02,05,02,00,7.60
2006,02,05,02,01,9.80
2006,02,05,02,02,9.70
2006,02,05,02,03,11.00
2006,02,05,02,04,11.30
2006,02,05,02,05,12.70
2006,02,05,02,06,6.10
2006,02,05,02,07,8.10
2006,02,05,02,08,8.50
2006,02,05,02,09,9.60
2006,02,05,02,10,10.90
2006,02,05,02,11,14.20
2006,02,05,02,12,10.50
2006,02,05,02,13,7.50
2006,02,05,02,14,13.60
2006,02,05,02,15,16.10
2006,02,05,02,16,16.60
2006,02,05,02,17,9.20
2006,02,05,02,18,11.70
2006,02,05,02,19,11.40
2006,02,05,02,20,12.10
2006,02,05,02,21,9.40
2006,02,05,02,22,7.40
2006,02,05,02,23,5.00
2006,02,05,02,24,4.10
2006,02,05,02,25,5.20
2006,02,05,02,26,9.50
2006,02,05,02,27,10.50
2006,02,05,02,28,6.00
2006,02,05,02,29,5.50
2006,02,05,02,30,8.90
2006,02,05,02,31,11.80
2006,02,05,02,32,10.30
2006,02,05,02,33,11.30
2006,02,05,02,34,7.20
2006,02,05,02,35,8.10
2006,02,05,02,36,8.10
2006,02,05,02,37,7.70
2006,02,05,02,38,8.20
2006,02,05,02,39,11.40
2006,02,05,02,40,7.30
2006,02,05,02,41,7.50
2006,02,05,02,42,5.30
2006,02,05,02,43,6.00
2006,02,05,02,44,12.70
2006,02,05,02,45,10.30
2006,02,05,02,46,12.20
2006,02,05,02,47,13.80
2006,02,05,02,48,9.30
2006,02,05,02,49,9.40
2006,02,05,02,50,7.50
2006,02,05,02,51,10.90
2006,02,05,02,52,9.00
2006,02,05,02,53,8.70
2006,02,05,02,54,6.90
2006,02,05,02,55,6.70
2006,02,05,02,56,7.50
2006,02,05,02,57,5.60
2006,02,05,02,58,4.80
2006,02,05,02,59,7.10
2006,02,05,03,00,8.10
2006,02,05,03,01,7.20
2006,02,05,03,02,7.30
2006,02,05,03,03,5.10
2006,02,05,03,04,6.50
2006,02,05,03,05,4.20
2006,02,05,03,06,9.10
2006,02,05,03,07,8.00
2006,02,05,03,08,4.70
2006,02,05,03,09,4.80
2006,02,05,03,10,3.20
2006,02,05,03,11,3.90
2006,02,05,03,12,4.30
2006,02,05,03,13,5.80
2006,02,05,03,14,5.50
2006,02,05,03,15,4.70
2006,02,05,03,16,6.40
2006,02,05,03,17,7.50
2006,02,05,03,18,5.20
2006,02,05,03,19,3.80
2006,02,05,03,20,5.30
2006,02,05,03,21,3.30
2006,02,05,03,22,1.60
2006,02,05,03,23,1.60
2006,02,05,03,24,3.60
2006,02,05,03,25,6.50
2006,02,05,03,26,5.80
2006,02,05,03,27,6.90
2006,02,05,03,28,6.10
2006,02,05,03,29,6.40
2006,02,05,03,30,6.70
2006,02,05,03,31,5.30
2006,02,05,03,32,5.10
2006,02,05,03,33,5.10
2006,02,05,03,34,4.70
2006,02,05,03,35,6.00
2006,02,05,03,36,6.40
2006,02,05,03,37,5.80
2006,02,05,03,38,4.70
2006,02,05,03,39,5.10
2006,02,05,03,40,3.70
2006,02,05,03,41,2.00
2006,02,05,03,42,2.20
2006,02,05,03,43,3.80
2006,02,05,03,44,3.80
2006,02,05,03,45,2.00
2006,02,05,03,46,1.50
2006,02,05,03,47,1.60
2006,02,05,03,48,2.40
2006,02,05,03,49,3.00
2006,02,05,03,50,4.80
2006,02,05,03,51,4.70
2006,02,05,03,52,3.40
2006,02,05,03,53,3.40
2006,02,05,03,54,3.20
2006,02,05,03,55,1.40
2006,02,05,03,56,1.10
2006,02,05,03,57,1.70
2006,02,05,03,58,2.40
2006,02,05,03,59,1.40
2006,02,05,04,00,1.80
2006,02,05,04,01,3.40
2006,02,05,04,02,3.70
2006,02,05,04,03,5.00
2006,02,05,04,04,3.90
2006,02,05,04,05,2.00
2006,02,05,04,06,3.60
2006,02,05,04,07,4.30
2006,02,05,04,08,4.30
2006,02,05,04,09,4.40
2006,02,05,04,10,3.50
2006,02,05,04,11,3.10
2006,02,05,04,12,2.50
2006,02,05,04,13,2.80
2006,02,05,04,14,2.60
2006,02,05,04,15,1.20
2006,02,05,04,16,0.80
2006,02,05,04,17,1.00
2006,02,05,04,18,0.20
2006,02,05,04,19,0.20
2006,02,05,04,20,2.30
2006,02,05,04,21,3.70
2006,02,05,04,22,2.70
2006,02,05,04,23,2.00
2006,02,05,04,24,2.60
2006,02,05,04,25,3.90
2006,02,05,04,26,4.70
2006,02,05,04,27,1.00
2006,02,05,04,28,3.00
2006,02,05,04,29,3.80
2006,02,05,04,30,3.80
2006,02,05,04,31,3.00
2006,02,05,04,32,4.10
2006,02,05,04,33,4.90
2006,02,05,04,34,2.40
2006,02,05,04,35,2.20
2006,02,05,04,36,2.20
2006,02,05,04,37,4.30
2006,02,05,04,38,4.80
2006,02,05,04,39,2.10
2006,02,05,04,40,4.10
2006,02,05,04,41,4.90
2006,02,05,04,42,4.80
2006,02,05,04,43,3.50
2006,02,05,04,44,2.50
2006,02,05,04,45,1.50
2006,02,05,04,46,4.10
2006,02,05,04,47,4.50
2006,02,05,04,48,2.00
2006,02,05,04,49,4.20
2006,02,05,04,50,4.20
2006,02,05,04,51,4.50
2006,02,05,04,52,3.70
2006,02,05,04,53,8.20
2006,02,05,04,54,5.00
2006,02,05,04,55,4.00
2006,02,05,04,56,8.20
2006,02,05,04,57,2.40
2006,02,05,04,58,7.40
2006,02,05,04,59,3.80
2006,02,05,05,00,4.70
2006,02,05,05,01,6.60
2006,02,05,05,02,8.10
2006,02,05,05,03,6.80
2006,02,05,05,04,6.40
2006,02,05,05,05,7.40
2006,02,05,05,06,3.10
2006,02,05,05,07,4.60
2006,02,05,05,08,7.20
2006,02,05,05,09,6.20
2006,02,05,05,10,5.60
2006,02,05,05,11,6.40
2006,02,05,05,12,4.60
2006,02,05,05,13,4.30
2006,02,05,05,14,8.50
2006,02,05,05,15,6.40
2006,02,05,05,16,3.00
2006,02,05,05,17,6.90
2006,02,05,05,18,8.10
2006,02,05,05,19,9.50
2006,02,05,05,20,8.40
2006,02,05,05,21,4.90
2006,02,05,05,22,6.00
2006,02,05,05,23,6.50
2006,02,05,05,24,6.40
2006,02,05,05,25,7.80
2006,02,05,05,26,3.10
2006,02,05,05,27,3.10
2006,02,05,05,28,5.50
2006,02,05,05,29,5.10
2006,02,05,05,30,4.20
2006,02,05,05,31,6.00
2006,02,05,05,32,4.40
2006,02,05,05,33,3.80
2006,02,05,05,34,3.60
2006,02,05,05,35,5.80
2006,02,05,05,36,3.10
2006,02,05,05,37,5.90
2006,02,05,05,38,4.90
2006,02,05,05,39,6.90
2006,02,05,05,40,5.10
2006,02,05,05,41,3.30
2006,02,05,05,42,1.60
2006,02,05,05,43,2.30
2006,02,05,05,44,8.20
2006,02,05,05,45,5.50
2006,02,05,05,46,6.80
2006,02,05,05,47,7.50
2006,02,05,05,48,5.80
2006,02,05,05,49,6.60
2006,02,05,05,50,6.00
2006,02,05,05,51,4.50
2006,02,05,05,52,9.50
2006,02,05,05,53,4.90
2006,02,05,05,54,5.90
2006,02,05,05,55,6.10
2006,02,05,05,56,5.90
2006,02,05,05,57,6.50
2006,02,05,05,58,9.10
2006,02,05,05,59,5.70
2006,02,05,06,00,6.40
2006,02,05,06,01,6.70
2006,02,05,06,02,4.20
2006,02,05,06,03,4.10
2006,02,05,06,04,5.90
2006,02,05,06,05,5.40
2006,02,05,06,06,5.10
2006,02,05,06,07,4.00
2006,02,05,06,08,6.90
2006,02,05,06,09,4.00
2006,02,05,06,10,3.10
2006,02,05,06,11,4.70
2006,02,05,06,12,6.40
2006,02,05,06,13,7.50
2006,02,05,06,14,6.70
2006,02,05,06,15,10.70
2006,02,05,06,16,6.80
2006,02,05,06,17,7.10
2006,02,05,06,18,6.50
2006,02,05,06,19,7.50
2006,02,05,06,20,7.60
2006,02,05,06,21,5.80
2006,02,05,06,22,6.30
2006,02,05,06,23,7.50
2006,02,05,06,24,6.50
2006,02,05,06,25,7.80
2006,02,05,06,26,8.10
2006,02,05,06,27,8.10
2006,02,05,06,28,8.70
2006,02,05,06,29,4.40
2006,02,05,06,30,5.90
2006,02,05,06,31,5.60
2006,02,05,06,32,4.40
2006,02,05,06,33,3.60
2006,02,05,06,34,5.50
2006,02,05,06,35,0.80
2006,02,05,06,36,4.10
2006,02,05,06,37,3.10
2006,02,05,06,38,4.00
2006,02,05,06,39,3.90
2006,02,05,06,40,3.40
2006,02,05,06,41,5.90
2006,02,05,06,42,5.00
2006,02,05,06,43,3.90
2006,02,05,06,44,3.60
2006,02,05,06,45,2.50
2006,02,05,06,46,0.10
2006,02,05,06,47,2.20
2006,02,05,06,48,1.40
2006,02,05,06,49,3.20
2006,02,05,06,50,2.60
2006,02,05,06,51,2.50
2006,02,05,06,52,1.00
2006,02,05,06,53,1.90
2006,02,05,06,54,0.60
2006,02,05,06,55,0.70
2006,02,05,06,56,1.10
2006,02,05,06,57,0.40
2006,02,05,06,58,0.40
2006,02,05,06,59,1.30
2006,02,05,07,00,1.00
2006,02,05,07,01,1.40
2006,02,05,07,02,1.60
2006,02,05,07,03,1.40
2006,02,05,07,04,1.70
2006,02,05,07,05,1.40
2006,02,05,07,06,1.60
2006,02,05,07,07,4.00
2006,02,05,07,08,4.20
2006,02,05,07,09,3.90
2006,02,05,07,10,4.90
2006,02,05,07,11,3.40
2006,02,05,07,12,3.20
2006,02,05,07,13,6.80
2006,02,05,07,14,7.70
2006,02,05,07,15,7.10
2006,02,05,07,16,6.60
2006,02,05,07,17,5.20
2006,02,05,07,18,5.20
2006,02,05,07,19,5.90
2006,02,05,07,20,8.20
2006,02,05,07,21,5.60
2006,02,05,07,22,3.00
2006,02,05,07,23,3.90
2006,02,05,07,24,5.30
2006,02,05,07,25,2.70
2006,02,05,07,26,2.90
2006,02,05,07,27,3.10
2006,02,05,07,28,2.40
2006,02,05,07,29,4.70
2006,02,05,07,30,5.30
2006,02,05,07,31,4.20
2006,02,05,07,32,4.80
2006,02,05,07,33,3.10
2006,02,05,07,34,4.90
2006,02,05,07,35,3.00
2006,02,05,07,36,2.50
2006,02,05,07,37,3.20
2006,02,05,07,38,3.50
2006,02,05,07,39,1.50
2006,02,05,07,40,1.60
2006,02,05,07,41,1.60
2006,02,05,07,42,0.20
2006,02,05,07,43,0.10
2006,02,05,07,44,2.20
2006,02,05,07,45,4.50
2006,02,05,07,46,4.50
2006,02,05,07,47,3.50
2006,02,05,07,48,3.80
2006,02,05,07,49,2.70
2006,02,05,07,50,0.80
2006,02,05,07,51,2.90
2006,02,05,07,52,3.30
2006,02,05,07,53,2.50
2006,02,05,07,54,5.40
2006,02,05,07,55,2.40
2006,02,05,07,56,3.50
2006,02,05,07,57,5.20
2006,02,05,07,58,4.70
2006,02,05,07,59,5.00
2006,02,05,08,00,6.00
2006,02,05,08,01,6.80
2006,02,05,08,02,6.10
2006,02,05,08,03,3.50
2006,02,05,08,04,0.60
2006,02,05,08,05,1.80
2006,02,05,08,06,0.00
2006,02,05,08,07,0.00
2006,02,05,08,08,0.80
2006,02,05,08,09,0.00
2006,02,05,08,10,1.40
2006,02,05,08,11,2.50
2006,02,05,08,12,3.00
2006,02,05,08,13,4.50
2006,02,05,08,14,2.50
2006,02,05,08,15,1.50
2006,02,05,08,16,2.20
2006,02,05,08,17,2.30
2006,02,05,08,18,2.00
2006,02,05,08,19,2.30
2006,02,05,08,20,0.80
2006,02,05,08,21,1.00
2006,02,05,08,22,3.50
2006,02,05,08,23,3.90
2006,02,05,08,24,1.30
2006,02,05,08,25,2.00
2006,02,05,08,26,1.60
2006,02,05,08,27,1.60
2006,02,05,08,28,1.80
2006,02,05,08,29,2.30
2006,02,05,08,30,1.40
2006,02,05,08,31,2.00
2006,02,05,08,32,0.90
2006,02,05,08,33,2.80
2006,02,05,08,34,1.70
2006,02,05,08,35,2.60
2006,02,05,08,36,0.60
2006,02,05,08,37,2.90
2006,02,05,08,38,4.40
2006,02,05,08,39,1.80
2006,02,05,08,40,4.00
2006,02,05,08,41,3.20
2006,02,05,08,42,1.10
2006,02,05,08,43,1.50
2006,02,05,08,44,0.30
2006,02,05,08,45,0.00
2006,02,05,08,46,0.00
2006,02,05,08,47,0.00
2006,02,05,08,48,1.70
2006,02,05,08,49,0.30
2006,02,05,08,50,0.20
2006,02,05,08,51,3.10
2006,02,05,08,52,1.10
2006,02,05,08,53,2.10
2006,02,05,08,54,0.10
2006,02,05,08,55,0.00
2006,02,05,08,56,1.50
2006,02,05,08,57,0.30
2006,02,05,08,58,2.90
2006,02,05,08,59,2.30
2006,02,05,09,00,1.70
2006,02,05,09,01,3.40
2006,02,05,09,02,4.30
2006,02,05,09,03,3.40
2006,02,05,09,04,3.10
2006,02,05,09,05,4.10
2006,02,05,09,06,4.70
2006,02,05,09,07,3.30
2006,02,05,09,08,2.80
2006,02,05,09,09,3.50
2006,02,05,09,10,1.40
2006,02,05,09,11,1.90
2006,02,05,09,12,4.00
2006,02,05,09,13,0.80
2006,02,05,09,14,0.50
2006,02,05,09,15,2.90
2006,02,05,09,16,1.20
2006,02,05,09,17,1.10
2006,02,05,09,18,1.00
2006,02,05,09,19,0.70
2006,02,05,09,20,3.10
2006,02,05,09,21,1.70
2006,02,05,09,22,1.10
2006,02,05,09,23,3.40
2006,02,05,09,24,1.50
2006,02,05,09,25,0.20
2006,02,05,09,26,1.00
2006,02,05,09,27,2.20
2006,02,05,09,28,2.90
2006,02,05,09,29,2.10
2006,02,05,09,30,1.20
2006,02,05,09,31,0.50
2006,02,05,09,32,0.90
2006,02,05,09,33,0.40
2006,02,05,09,34,0.10
2006,02,05,09,35,0.00
2006,02,05,09,36,0.00
2006,02,05,09,37,0.00
2006,02,05,09,38,0.00
2006,02,05,09,39,0.00
2006,02,05,09,40,0.60
2006,02,05,09,41,0.20
2006,02,05,09,42,0.00
2006,02,05,09,43,0.20
2006,02,05,09,44,1.30
2006,02,05,09,45,1.30
2006,02,05,09,46,2.80
2006,02,05,09,47,2.00
2006,02,05,09,48,2.20
2006,02,05,09,49,2.50
2006,02,05,09,50,1.20
2006,02,05,09,51,0.10
2006,02,05,09,52,0.00
2006,02,05,09,53,0.00
2006,02,05,09,54,0.00
2006,02,05,09,55,0.30
2006,02,05,09,56,0.00
2006,02,05,09,57,0.10
2006,02,05,09,58,1.20
2006,02,05,09,59,0.00
2006,02,05,10,00,0.40
2006,02,05,10,01,2.80
2006,02,05,10,02,3.50
2006,02,05,10,03,1.70
2006,02,05,10,04,3.20
2006,02,05,10,05,2.50
2006,02,05,10,06,2.30
2006,02,05,10,07,5.20
2006,02,05,10,08,5.60
2006,02,05,10,09,1.80
2006,02,05,10,10,0.00
2006,02,05,10,11,1.70
2006,02,05,10,12,4.10
2006,02,05,10,13,1.90
2006,02,05,10,14,4.70
2006,02,05,10,15,2.70
2006,02,05,10,16,3.50
2006,02,05,10,17,2.90
2006,02,05,10,18,3.50
2006,02,05,10,19,1.50
2006,02,05,10,20,3.40
2006,02,05,10,21,1.80
2006,02,05,10,22,4.40
2006,02,05,10,23,1.60
2006,02,05,10,24,2.20
2006,02,05,10,25,3.60
2006,02,05,10,26,5.90
2006,02,05,10,27,4.70
2006,02,05,10,28,5.50
2006,02,05,10,29,4.10
2006,02,05,10,30,5.50
2006,02,05,10,31,2.30
2006,02,05,10,32,1.00
2006,02,05,10,33,1.40
2006,02,05,10,34,4.80
2006,02,05,10,35,3.90
2006,02,05,10,36,3.20
2006,02,05,10,37,4.70
2006,02,05,10,38,6.70
2006,02,05,10,39,4.10
2006,02,05,10,40,4.20
2006,02,05,10,41,3.60
2006,02,05,10,42,2.30
2006,02,05,10,43,0.90
2006,02,05,10,44,2.00
2006,02,05,10,45,5.10
2006,02,05,10,46,2.80
2006,02,05,10,47,1.50
2006,02,05,10,48,4.00
2006,02,05,10,49,4.80
2006,02,05,10,50,5.90
2006,02,05,10,51,4.50
2006,02,05,10,52,1.30
2006,02,05,10,53,0.70
2006,02,05,10,54,3.00
2006,02,05,10,55,5.40
2006,02,05,10,56,6.10
2006,02,05,10,57,1.40
2006,02,05,10,58,4.30
2006,02,05,10,59,2.60
2006,02,05,11,00,6.00
2006,02,05,11,01,4.00
2006,02,05,11,02,2.60
2006,02,05,11,03,1.00
2006,02,05,11,04,1.70
2006,02,05,11,05,2.30
2006,02,05,11,06,2.70
2006,02,05,11,07,2.80
2006,02,05,11,08,3.00
2006,02,05,11,09,1.50
2006,02,05,11,10,2.60
2006,02,05,11,11,3.30
2006,02,05,11,12,0.60
2006,02,05,11,13,7.40
2006,02,05,11,14,4.20
2006,02,05,11,15,3.10
2006,02,05,11,16,6.20
2006,02,05,11,17,5.20
2006,02,05,11,18,3.00
2006,02,05,11,19,1.30
2006,02,05,11,20,1.30
2006,02,05,11,21,1.60
2006,02,05,11,22,1.10
2006,02,05,11,23,1.20
2006,02,05,11,24,3.10
2006,02,05,11,25,4.40
2006,02,05,11,26,2.70
2006,02,05,11,27,3.70
2006,02,05,11,28,3.90
2006,02,05,11,29,2.50
2006,02,05,11,30,0.90
2006,02,05,11,31,1.00
2006,02,05,11,32,3.80
2006,02,05,11,33,3.30
2006,02,05,11,34,2.20
2006,02,05,11,35,1.40
2006,02,05,11,36,0.00
2006,02,05,11,37,0.00
2006,02,05,11,38,0.10
2006,02,05,11,39,1.00
2006,02,05,11,40,0.10
2006,02,05,11,41,0.20
2006,02,05,11,42,1.10
2006,02,05,11,43,0.80
2006,02,05,11,44,0.10
2006,02,05,11,45,0.40
2006,02,05,11,46,0.00
2006,02,05,11,47,0.00
2006,02,05,11,48,0.00
2006,02,05,11,49,0.10
2006,02,05,11,50,1.90
2006,02,05,11,51,2.10
2006,02,05,11,52,0.20
2006,02,05,11,53,0.00
2006,02,05,11,54,0.00
2006,02,05,11,55,1.00
2006,02,05,11,56,2.30
2006,02,05,11,57,3.40
2006,02,05,11,58,1.80
2006,02,05,11,59,1.80
2006,02,05,12,00,2.30
2006,02,05,12,01,1.70
2006,02,05,12,02,0.70
2006,02,05,12,03,0.90
2006,02,05,12,04,0.20
2006,02,05,12,05,1.20
2006,02,05,12,06,0.60
2006,02,05,12,07,0.10
2006,02,05,12,08,0.50
2006,02,05,12,09,2.90
2006,02,05,12,10,3.00
2006,02,05,12,11,0.30
2006,02,05,12,12,1.70
2006,02,05,12,13,2.50
2006,02,05,12,14,1.80
2006,02,05,12,15,1.20
2006,02,05,12,16,0.00
2006,02,05,12,17,0.60
2006,02,05,12,18,1.70
2006,02,05,12,19,1.40
2006,02,05,12,20,1.00
2006,02,05,12,21,0.60
2006,02,05,12,22,0.00
2006,02,05,12,23,0.00
2006,02,05,12,24,0.80
2006,02,05,12,25,0.00
2006,02,05,12,26,0.30
2006,02,05,12,27,0.60
2006,02,05,12,28,0.60
2006,02,05,12,29,0.80
2006,02,05,12,30,2.20
2006,02,05,12,31,1.30
2006,02,05,12,32,0.60
2006,02,05,12,33,0.30
2006,02,05,12,34,0.20
2006,02,05,12,35,1.10
2006,02,05,12,36,1.60
2006,02,05,12,37,1.60
2006,02,05,12,38,0.80
2006,02,05,12,39,0.00
2006,02,05,12,40,0.10
2006,02,05,12,41,0.40
2006,02,05,12,42,0.10
2006,02,05,12,43,0.00
2006,02,05,12,44,0.70
2006,02,05,12,45,2.60
2006,02,05,12,46,3.00
2006,02,05,12,47,0.30
2006,02,05,12,48,2.60
2006,02,05,12,49,1.30
2006,02,05,12,50,0.20
2006,02,05,12,51,0.00
2006,02,05,12,52,1.00
2006,02,05,12,53,1.00
2006,02,05,12,54,2.10
2006,02,05,12,55,1.50
2006,02,05,12,56,1.40
2006,02,05,12,57,1.60
2006,02,05,12,58,1.60
2006,02,05,12,59,2.20
2006,02,05,13,00,0.20
2006,02,05,13,01,1.90
2006,02,05,13,02,0.40
2006,02,05,13,03,0.00
2006,02,05,13,04,1.00
2006,02,05,13,05,1.60
2006,02,05,13,06,0.60
2006,02,05,13,07,0.00
2006,02,05,13,08,0.20
2006,02,05,13,09,0.60
2006,02,05,13,10,0.00
2006,02,05,13,11,0.10
2006,02,05,13,12,3.80
2006,02,05,13,13,0.70
2006,02,05,13,14,0.00
2006,02,05,13,15,0.00
2006,02,05,13,16,0.80
2006,02,05,13,17,1.40
2006,02,05,13,18,0.20
2006,02,05,13,19,0.00
2006,02,05,13,20,0.00
2006,02,05,13,21,2.30
2006,02,05,13,22,3.10
2006,02,05,13,23,2.40
2006,02,05,13,24,3.40
2006,02,05,13,25,0.20
2006,02,05,13,26,1.80
2006,02,05,13,27,0.90
2006,02,05,13,28,2.50
2006,02,05,13,29,3.90
2006,02,05,13,30,5.00
2006,02,05,13,31,4.70
2006,02,05,13,32,5.60
2006,02,05,13,33,4.10
2006,02,05,13,34,3.90
2006,02,05,13,35,4.30
2006,02,05,13,36,6.30
2006,02,05,13,37,5.80
2006,02,05,13,38,4.70
2006,02,05,13,39,4.80
2006,02,05,13,40,3.90
2006,02,05,13,41,5.10
2006,02,05,13,42,2.90
2006,02,05,13,43,3.10
2006,02,05,13,44,0.60
2006,02,05,13,45,0.80
2006,02,05,13,46,2.70
2006,02,05,13,47,3.60
2006,02,05,13,48,3.10
2006,02,05,13,49,2.60
2006,02,05,13,50,2.80
2006,02,05,13,51,1.20
2006,02,05,13,52,2.80
2006,02,05,13,53,5.70
2006,02,05,13,54,5.00
2006,02,05,13,55,1.20
2006,02,05,13,56,0.00
2006,02,05,13,57,0.00
2006,02,05,13,58,2.40
2006,02,05,13,59,3.00
2006,02,05,14,00,1.20
2006,02,05,14,01,0.30
2006,02,05,14,02,3.40
2006,02,05,14,03,0.70
2006,02,05,14,04,0.40
2006,02,05,14,05,1.80
2006,02,05,14,06,1.90
2006,02,05,14,07,3.50
2006,02,05,14,08,4.30
2006,02,05,14,09,1.90
2006,02,05,14,10,2.60
2006,02,05,14,11,4.20
2006,02,05,14,12,3.80
2006,02,05,14,13,2.70
2006,02,05,14,14,0.20
2006,02,05,14,15,2.70
2006,02,05,14,16,0.60
2006,02,05,14,17,0.50
2006,02,05,14,18,2.80
2006,02,05,14,19,1.30
2006,02,05,14,20,0.00
2006,02,05,14,21,0.00
2006,02,05,14,22,0.00
2006,02,05,14,23,0.00
2006,02,05,14,24,0.10
2006,02,05,14,25,3.20
2006,02,05,14,26,2.10
2006,02,05,14,27,1.80
2006,02,05,14,28,1.10
2006,02,05,14,29,0.40
2006,02,05,14,30,0.60
2006,02,05,14,31,2.40
2006,02,05,14,32,2.70
2006,02,05,14,33,2.10
2006,02,05,14,34,1.00
2006,02,05,14,35,4.00
2006,02,05,14,36,3.60
2006,02,05,14,37,4.70
2006,02,05,14,38,2.20
2006,02,05,14,39,2.60
2006,02,05,14,40,4.10
2006,02,05,14,41,4.60
2006,02,05,14,42,3.20
2006,02,05,14,43,3.10
2006,02,05,14,44,3.60
2006,02,05,14,45,3.50
2006,02,05,14,46,3.40
2006,02,05,14,47,2.80
2006,02,05,14,48,1.70
2006,02,05,14,49,1.00
2006,02,05,14,50,1.10
2006,02,05,14,51,3.70
2006,02,05,14,52,3.00
2006,02,05,14,53,4.00
2006,02,05,14,54,5.10
2006,02,05,14,55,4.10
2006,02,05,14,56,4.70
2006,02,05,14,57,4.30
2006,02,05,14,58,3.80
2006,02,05,14,59,4.20
2006,02,05,15,00,6.20
2006,02,05,15,01,3.40
2006,02,05,15,02,1.60
2006,02,05,15,03,1.50
2006,02,05,15,04,0.30
2006,02,05,15,05,0.50
2006,02,05,15,06,1.40
2006,02,05,15,07,3.00
2006,02,05,15,08,1.40
2006,02,05,15,09,0.30
2006,02,05,15,10,3.00
2006,02,05,15,11,4.00
2006,02,05,15,12,2.30
2006,02,05,15,13,1.10
2006,02,05,15,14,3.10
2006,02,05,15,15,1.50
2006,02,05,15,16,0.10
2006,02,05,15,17,0.20
2006,02,05,15,18,0.00
2006,02,05,15,19,0.30
2006,02,05,15,20,2.20
2006,02,05,15,21,6.40
2006,02,05,15,22,6.30
2006,02,05,15,23,5.60
2006,02,05,15,24,3.00
2006,02,05,15,25,4.20
2006,02,05,15,26,5.90
2006,02,05,15,27,2.90
2006,02,05,15,28,3.90
2006,02,05,15,29,3.30
2006,02,05,15,30,2.70
2006,02,05,15,31,2.80
2006,02,05,15,32,3.90
2006,02,05,15,33,2.30
2006,02,05,15,34,3.00
2006,02,05,15,35,5.10
2006,02,05,15,36,7.40
2006,02,05,15,37,5.30
2006,02,05,15,38,6.40
2006,02,05,15,39,5.60
2006,02,05,15,40,1.90
2006,02,05,15,41,5.80
2006,02,05,15,42,5.80
2006,02,05,15,43,3.60
2006,02,05,15,44,4.60
2006,02,05,15,45,5.80
2006,02,05,15,46,5.40
2006,02,05,15,47,5.10
2006,02,05,15,48,3.50
2006,02,05,15,49,8.40
2006,02,05,15,50,8.10
2006,02,05,15,51,8.20
2006,02,05,15,52,6.80
2006,02,05,15,53,8.40
2006,02,05,15,54,7.90
2006,02,05,15,55,6.40
2006,02,05,15,56,6.10
2006,02,05,15,57,6.40
2006,02,05,15,58,6.20
2006,02,05,15,59,6.70
2006,02,05,16,00,6.50
2006,02,05,16,01,7.80
2006,02,05,16,02,8.50
2006,02,05,16,03,6.70
2006,02,05,16,04,3.80
2006,02,05,16,05,4.10
2006,02,05,16,06,4.80
2006,02,05,16,07,2.30
2006,02,05,16,08,4.60
2006,02,05,16,09,4.50
2006,02,05,16,10,5.20
2006,02,05,16,11,3.70
2006,02,05,16,12,6.10
2006,02,05,16,13,8.20
2006,02,05,16,14,7.60
2006,02,05,16,15,7.00
2006,02,05,16,16,4.70
2006,02,05,16,17,7.30
2006,02,05,16,18,7.60
2006,02,05,16,19,7.60
2006,02,05,16,20,8.20
2006,02,05,16,21,7.80
2006,02,05,16,22,6.50
2006,02,05,16,23,7.70
2006,02,05,16,24,6.40
2006,02,05,16,25,7.50
2006,02,05,16,26,6.00
2006,02,05,16,27,6.80
2006,02,05,16,28,5.80
2006,02,05,16,29,5.10
2006,02,05,16,30,7.70
2006,02,05,16,31,6.80
2006,02,05,16,32,5.80
2006,02,05,16,33,2.70
2006,02,05,16,34,5.00
2006,02,05,16,35,5.70
2006,02,05,16,36,5.20
2006,02,05,16,37,6.40
2006,02,05,16,38,4.40
2006,02,05,16,39,7.80
2006,02,05,16,40,8.70
2006,02,05,16,41,7.20
2006,02,05,16,42,6.30
2006,02,05,16,43,8.10
2006,02,05,16,44,6.40
2006,02,05,16,45,4.30
2006,02,05,16,46,2.90
2006,02,05,16,47,5.60
2006,02,05,16,48,6.40
2006,02,05,16,49,4.70
2006,02,05,16,50,3.60
2006,02,05,16,51,4.30
2006,02,05,16,52,4.80
2006,02,05,16,53,4.30
2006,02,05,16,54,5.10
2006,02,05,16,55,8.00
2006,02,05,16,56,8.60
2006,02,05,16,57,7.40
2006,02,05,16,58,5.90
2006,02,05,16,59,2.10
2006,02,05,17,00,6.00
2006,02,05,17,01,4.90
2006,02,05,17,02,6.00
2006,02,05,17,03,5.40
2006,02,05,17,04,3.60
2006,02,05,17,05,3.70
2006,02,05,17,06,5.80
2006,02,05,17,07,4.40
2006,02,05,17,08,5.20
2006,02,05,17,09,4.60
2006,02,05,17,10,5.70
2006,02,05,17,11,3.00
2006,02,05,17,12,5.30
2006,02,05,17,13,4.90
2006,02,05,17,14,3.80
2006,02,05,17,15,5.60
2006,02,05,17,16,2.90
2006,02,05,17,17,5.60
2006,02,05,17,18,7.10
2006,02,05,17,19,6.80
2006,02,05,17,20,6.60
2006,02,05,17,21,7.20
2006,02,05,17,22,5.30
2006,02,05,17,23,7.50
2006,02,05,17,24,7.20
2006,02,05,17,25,7.60
2006,02,05,17,26,8.50
2006,02,05,17,27,5.80
2006,02,05,17,28,4.60
2006,02,05,17,29,4.30
2006,02,05,17,30,7.00
2006,02,05,17,31,6.20
2006,02,05,17,32,8.00
2006,02,05,17,33,6.50
2006,02,05,17,34,6.40
2006,02,05,17,35,6.20
2006,02,05,17,36,4.70
2006,02,05,17,37,8.50
2006,02,05,17,38,5.90
2006,02,05,17,39,3.70
2006,02,05,17,40,3.60
2006,02,05,17,41,5.00
2006,02,05,17,42,4.10
2006,02,05,17,43,6.80
2006,02,05,17,44,8.60
2006,02,05,17,45,7.10
2006,02,05,17,46,5.60
2006,02,05,17,47,4.30
2006,02,05,17,48,5.30
2006,02,05,17,49,6.00
2006,02,05,17,50,4.70
2006,02,05,17,51,6.00
2006,02,05,17,52,6.20
2006,02,05,17,53,6.00
2006,02,05,17,54,8.40
2006,02,05,17,55,6.90
2006,02,05,17,56,5.10
2006,02,05,17,57,7.00
2006,02,05,17,58,4.90
2006,02,05,17,59,3.40
2006,02,05,18,00,7.80
2006,02,05,18,01,8.10
2006,02,05,18,02,7.80